GW5681 Weather Reports


time (UTC)temp
C
wind
direction
speed
KPH
gust
KPH
rain 1hr
cm
rain 24hr
cm
rain mn
cm
humidity
%
barometer
mb
20260505225516 9 174 0.0 3.2 0.00 0.30 0.30 78 1007.1
20260505224516 9 240 0.0 3.2 0.00 0.30 0.30 78 1007.1
20260505223517 9 307 1.6 6.4 0.00 0.30 0.30 77 1007.3
20260505222517 9 265 0.0 3.2 0.00 0.30 0.30 77 1007.5
20260505221517 9 322 1.6 4.8 0.00 0.30 0.30 77 1007.4
20260505220517 8 270 1.6 4.8 0.00 0.30 0.30 78 1007.5
20260505215517 8 234 0.0 4.8 0.00 0.30 0.30 79 1007.5
20260505214517 8 307 1.6 4.8 0.00 0.30 0.30 78 1007.5
20260505213517 9 302 1.6 4.8 0.00 0.30 0.30 78 1007.5
20260505212518 9 291 1.6 8.0 0.00 0.30 0.30 81 1007.5
20260505211538 9 289 1.6 8.0 0.00 0.30 0.30 80 1007.4
20260505210518 9 286 1.6 6.4 0.00 0.30 0.30 83 1007.4
20260505205518 9 281 1.6 6.4 0.00 0.30 0.30 85 1007.6
20260505204516 9 264 1.6 6.4 0.00 0.30 0.30 85 1007.3
20260505203516 9 285 3.2 9.7 0.03 0.30 0.30 85 1007.4
20260505202519 8 280 1.6 8.0 0.03 0.30 0.30 86 1007.3
20260505201536 8 283 3.2 6.4 0.03 0.30 0.30 86 1007.3
20260505200516 9 296 3.2 9.7 0.10 0.30 0.30 86 1007.4
20260505195516 9 302 1.6 6.4 0.20 0.30 0.30 87 1007.3
20260505194516 9 286 1.6 8.0 0.23 0.28 0.28 85 1007.2
20260505193517 9 272 1.6 8.0 0.20 0.28 0.28 84 1007.3
20260505192517 10 284 4.8 12.9 0.23 0.25 0.25 82 1007.0
20260505191516 10 289 1.6 4.8 0.25 0.25 0.25 82 1007.0
20260505190517 11 286 3.2 8.0 0.18 0.20 0.20 76 1006.9
20260505185517 11 265 1.6 8.0 0.08 0.10 0.10 71 1006.6
20260505184518 12 274 3.2 6.4 0.05 0.08 0.08 68 1006.6
20260505183518 12 312 3.2 9.7 0.05 0.05 0.05 67 1006.4
20260505182518 13 307 4.8 17.7 0.03 0.03 0.03 59 1006.1
20260505181518 13 309 4.8 12.9 0.00 0.03 0.03 56 1005.8
20260505180538 13 298 4.8 11.3 0.00 0.03 0.03 56 1005.6
20260505175518 13 281 4.8 14.5 0.00 0.03 0.03 56 1005.5
20260505174518 13 315 3.2 9.7 0.00 0.03 0.03 56 1005.2
20260505173518 13 330 3.2 11.3 0.00 0.03 0.03 56 1005.1
20260505172516 13 319 4.8 12.9 0.00 0.03 0.03 57 1005.2
20260505171519 14 298 3.2 9.7 0.00 0.03 0.03 57 1005.0
20260505170515 14 261 3.2 11.3 0.00 0.03 0.03 57 1004.9
20260505165516 14 297 4.8 11.3 0.00 0.03 0.03 58 1004.8
20260505164536 14 309 3.2 9.7 0.00 0.03 0.03 59 1004.8
20260505163517 14 324 3.2 8.0 0.00 0.03 0.03 60 1004.6
20260505162517 14 331 3.2 8.0 0.00 0.03 0.03 60 1004.6
20260505161517 15 300 3.2 16.1 0.00 0.03 0.03 61 1004.6
20260505160517 15 305 3.2 11.3 0.00 0.03 0.03 60 1004.6
20260505152518 14 276 3.2 11.3 0.00 0.03 0.03 64 1004.3
20260505151538 14 274 3.2 11.3 0.00 0.03 0.03 65 1003.4
20260505150518 14 359 3.2 9.7 0.00 0.03 0.03 67 1003.5
20260505140516 13 283 3.2 9.7 0.00 0.03 0.03 76 1002.3
20260505124537 14 283 3.2 8.0 0.00 0.03 0.03 84 1001.8
20260505123517 14 278 3.2 9.7 0.00 0.03 0.03 83 1001.3
20260505122537 14 287 3.2 14.5 0.00 0.03 0.03 83 1001.1
20260505121517 14 303 3.2 9.7 0.00 0.03 0.03 83 1001.0
20260505120518 13 280 4.8 12.9 0.00 0.03 0.03 83 1000.8
20260505115517 13 291 3.2 6.4 0.00 0.03 0.03 83 1000.4
20260505114518 13 303 3.2 8.0 0.00 0.03 0.03 83 1000.3
20260505113518 13 285 3.2 6.4 0.00 0.03 0.03 83 1000.3
20260505112518 13 302 3.2 6.4 0.00 0.03 0.03 84 1000.5
20260505111515 13 284 3.2 8.0 0.00 0.03 0.03 84 1000.4
20260505110516 13 295 3.2 8.0 0.00 0.03 0.03 84 1000.3
20260505101516 13 309 3.2 6.4 0.00 0.03 0.03 83 999.6
20260505100516 13 310 3.2 11.3 0.00 0.03 0.03 83 999.4
20260505095517 13 337 3.2 4.8 0.00 0.03 0.03 83 999.4
20260505094517 13 313 3.2 6.4 0.00 0.03 0.03 83 999.2
20260505093517 13 294 3.2 8.0 0.00 0.03 0.03 83 999.2
20260505092517 13 322 3.2 9.7 0.00 0.03 0.03 83 998.9
20260505091517 13 292 1.6 8.0 0.00 0.03 0.03 84 999.1
20260505090517 13 316 1.6 4.8 0.00 0.03 0.03 83 999.1
20260505085518 13 309 1.6 9.7 0.00 0.03 0.03 83 999.3
20260505084516 13 326 1.6 4.8 0.00 0.03 0.03 82 999.2
20260505083516 13 302 1.6 8.0 0.00 0.03 0.03 81 999.1
20260505082516 14 328 1.6 3.2 0.00 0.03 0.03 80 998.9
20260505081516 14 317 3.2 11.3 0.00 0.03 0.03 79 998.9
20260505080516 14 314 3.2 9.7 0.00 0.03 0.03 78 998.9
20260505075516 14 316 4.8 12.9 0.00 0.03 0.03 79 999.0
20260505074517 14 330 3.2 8.0 0.00 0.03 0.03 79 999.0
20260505073516 14 326 1.6 8.0 0.00 0.03 0.03 79 999.3
20260505072516 14 331 3.2 8.0 0.00 0.03 0.03 79 999.3
20260505071536 15 335 3.2 8.0 0.00 0.03 0.03 78 999.2
20260505070516 15 339 3.2 11.3 0.00 0.03 0.03 77 999.4
20260505065517 15 331 4.8 14.5 0.00 0.03 0.03 77 999.4
20260505064517 15 314 3.2 9.7 0.00 0.03 0.03 77 999.7
20260505063537 15 324 3.2 9.7 0.00 0.03 0.03 77 999.7
20260505062517 15 331 3.2 6.4 0.00 0.03 0.03 77 999.7
20260505061517 15 326 3.2 8.0 0.00 0.03 0.03 77 999.8
20260505060537 15 321 3.2 8.0 0.00 0.03 0.03 77 999.9
20260505055518 14 322 3.2 8.0 0.00 0.03 0.03 78 1000.1
20260505054518 14 339 3.2 9.7 0.00 0.03 0.03 78 1000.2
20260505053518 14 332 3.2 9.7 0.00 0.05 0.03 78 1000.3
20260505052517 14 320 3.2 9.7 0.00 0.08 0.03 77 1000.3
20260505051518 14 323 3.2 9.7 0.00 0.08 0.03 77 1000.4
20260505050518 14 305 3.2 8.0 0.00 0.08 0.03 77 1000.3
20260505041516 15 313 4.8 9.7 0.00 0.08 0.03 76 1000.3
20260505040519 15 339 4.8 11.3 0.03 0.08 0.03 75 1000.3
20260505035538 15 320 4.8 11.3 0.03 0.08 0.03 73 1000.3
20260505034516 15 309 3.2 12.9 0.03 0.08 0.03 73 1000.4
20260505033517 15 297 3.2 9.7 0.03 0.08 0.03 75 1000.5
20260505032537 15 336 3.2 9.7 0.03 0.08 0.03 75 1000.4
20260505031517 16 292 6.4 20.9 0.00 0.08 0.00 73 1000.4
20260505030517 16 307 4.8 11.3 0.00 0.05 0.00 71 1000.6
20260505025518 16 321 4.8 11.3 0.00 0.05 0.00 71 1000.7
20260505024537 16 329 3.2 9.7 0.00 0.05 0.00 71 1000.9
20260505023538 16 329 4.8 8.0 0.00 0.05 0.00 71 1000.8
20260505022518 16 351 3.2 9.7 0.00 0.05 0.00 71 1000.7
20260505021538 16 352 3.2 8.0 0.00 0.05 0.00 69 1000.8
20260505020518 16 2 3.2 6.4 0.00 0.05 0.00 68 1000.7
20260505015519 16 352 3.2 9.7 0.00 0.05 0.00 67 1000.7
20260505014516 16 342 3.2 11.3 0.00 0.05 0.00 65 1000.6
20260505013516 16 346 3.2 9.7 0.00 0.05 0.00 63 1000.5
20260505012536 16 9 3.2 11.3 0.00 0.05 0.00 61 1000.5
20260505011516 16 345 3.2 8.0 0.00 0.05 0.00 60 1000.4
20260505010516 16 358 3.2 8.0 0.00 0.05 0.00 60 1000.4
20260505005516 17 343 3.2 8.0 0.00 0.05 0.00 59 1000.4
20260505004517 17 354 3.2 8.0 0.00 0.05 0.00 58 1000.4
20260505003516 17 351 1.6 4.8 0.00 0.05 0.00 57 1000.3
20260505002517 17 349 3.2 6.4 0.00 0.05 0.00 57 1000.2
20260505001517 17 348 3.2 8.0 0.00 0.05 0.00 56 1000.2
20260505000518 18 340 4.8 12.9 0.00 0.05 0.00 54 1000.2
20260504235517 18 340 3.2 8.0 0.00 0.05 0.00 53 1000.3
20260504234517 18 333 4.8 11.3 0.00 0.05 0.00 52 1000.5
20260504233518 18 320 4.8 16.1 0.00 0.05 0.00 50 1000.6
20260504231518 19 337 4.8 14.5 0.00 0.05 0.00 47 1000.9
20260504230518 19 343 3.2 8.0 0.00 0.05 0.00 46 1001.0